Location: Burbank
(38.7788°N, 114.0429°W)
Time: 01:51:44
(UTC+00:00)

Courier 1B Rocket - Visible Passes

Search period start: 14 May 2026 00:00
Search period end: 24 May 2026 00:00
Orbit: 920 x 1201 km, 28.2° (Epoch: 13 May)

Date Brightness Start Highest point End Pass type
(mag) Time Alt. Az. Time Alt. Az. Time Alt. Az.
20 May 7.1 11:39:45 10° S 11:41:29 11° SSE 11:43:11 10° SE visible
22 May 6.8 11:28:10 10° SSW 11:32:02 16° SSE 11:35:48 10° ESE visible
23 May 7.0 10:29:10 11° S 10:31:03 12° SSE 10:33:29 10° SE visible
